Time,TemperatureF,DewpointF,PressureIn,WindDirection,WindDirectionDegrees,WindSpeedMPH,WindSpeedGustMPH,Humidity,HourlyPrecipIn,Conditions,Clouds,dailyrainin,SoftwareType,DateUTC
2013-10-30 00:05:00,36.9,31.0,30.20,NNW,337,0.0,-999.0,79,-99.99,,,0.00,Acu-Link.com,2013-10-30 04:05:00,
2013-10-30 00:20:00,36.7,31.1,30.20,NNW,337,0.0,-999.0,80,-99.99,,,0.00,Acu-Link.com,2013-10-30 04:20:00,
2013-10-30 00:35:00,36.7,31.4,30.19,NNW,337,0.0,-999.0,81,-99.99,,,0.00,Acu-Link.com,2013-10-30 04:35:00,
2013-10-30 00:51:00,36.3,30.7,30.19,NNW,337,0.0,-999.0,80,-99.99,,,0.00,Acu-Link.com,2013-10-30 04:51:00,
2013-10-30 01:06:00,36.3,31.3,30.18,NNW,337,0.0,-999.0,82,-99.99,,,0.00,Acu-Link.com,2013-10-30 05:06:00,
2013-10-30 01:21:00,36.1,31.4,30.19,NNW,337,0.0,-999.0,83,-99.99,,,0.00,Acu-Link.com,2013-10-30 05:21:00,
2013-10-30 01:36:00,36.0,31.3,30.18,NNW,337,0.0,-999.0,83,-99.99,,,0.00,Acu-Link.com,2013-10-30 05:36:00,
2013-10-30 01:51:00,35.8,31.2,30.19,NNW,337,0.0,-999.0,83,-99.99,,,0.00,Acu-Link.com,2013-10-30 05:51:00,
2013-10-30 02:06:00,35.4,30.8,30.17,NNW,337,0.0,-999.0,83,-99.99,,,0.00,Acu-Link.com,2013-10-30 06:06:00,
2013-10-30 02:21:00,35.2,30.9,30.17,NNW,337,0.0,-999.0,84,-99.99,,,0.00,Acu-Link.com,2013-10-30 06:21:00,
2013-10-30 02:37:00,35.2,30.9,30.16,NNW,337,0.0,-999.0,84,-99.99,,,0.00,Acu-Link.com,2013-10-30 06:37:00,
2013-10-30 02:52:00,35.2,30.9,30.16,NNW,337,0.0,-999.0,84,-99.99,,,0.00,Acu-Link.com,2013-10-30 06:52:00,
2013-10-30 03:07:00,34.9,30.6,30.16,NNW,337,0.0,-999.0,84,-99.99,,,0.00,Acu-Link.com,2013-10-30 07:07:00,
2013-10-30 03:22:00,34.7,30.7,30.15,NNW,337,0.0,-999.0,85,-99.99,,,0.00,Acu-Link.com,2013-10-30 07:22:00,
2013-10-30 03:37:00,34.9,31.1,30.16,NNW,337,0.0,-999.0,86,-99.99,,,0.00,Acu-Link.com,2013-10-30 07:37:00,
2013-10-30 03:52:00,34.9,31.4,30.14,NNW,337,0.0,-999.0,87,-99.99,,,0.00,Acu-Link.com,2013-10-30 07:52:00,
2013-10-30 04:07:00,34.3,30.6,30.14,NNW,337,0.0,-999.0,86,-99.99,,,0.00,Acu-Link.com,2013-10-30 08:07:00,
2013-10-30 04:23:00,34.2,30.5,30.14,NNW,337,0.0,-999.0,86,-99.99,,,0.00,Acu-Link.com,2013-10-30 08:23:00,
2013-10-30 04:38:00,33.8,30.3,30.15,NNW,337,0.0,-999.0,87,-99.99,,,0.00,Acu-Link.com,2013-10-30 08:38:00,
2013-10-30 04:53:00,33.8,30.3,30.15,NNW,337,0.0,-999.0,87,-99.99,,,0.00,Acu-Link.com,2013-10-30 08:53:00,
2013-10-30 05:08:00,33.8,30.6,30.16,NNW,337,0.0,-999.0,88,-99.99,,,0.00,Acu-Link.com,2013-10-30 09:08:00,
2013-10-30 05:23:00,33.6,30.4,30.15,NNW,337,0.0,-999.0,88,-99.99,,,0.00,Acu-Link.com,2013-10-30 09:23:00,
2013-10-30 05:39:00,33.4,30.0,30.15,NNW,337,0.0,-999.0,87,-99.99,,,0.00,Acu-Link.com,2013-10-30 09:39:00,
2013-10-30 05:54:00,33.3,29.9,30.16,NNW,337,0.0,-999.0,87,-99.99,,,0.00,Acu-Link.com,2013-10-30 09:54:00,
2013-10-30 06:09:00,33.4,30.2,30.15,NNW,337,0.0,-999.0,88,-99.99,,,0.00,Acu-Link.com,2013-10-30 10:09:00,
2013-10-30 06:24:00,33.6,30.7,30.15,NNW,337,0.0,-999.0,89,-99.99,,,0.00,Acu-Link.com,2013-10-30 10:24:00,
2013-10-30 06:39:00,33.8,31.2,30.15,NNW,337,0.0,-999.0,90,-99.99,,,0.00,Acu-Link.com,2013-10-30 10:39:00,
2013-10-30 06:54:00,33.8,31.2,30.14,NNW,337,0.0,-999.0,90,-99.99,,,0.00,Acu-Link.com,2013-10-30 10:54:00,
2013-10-30 07:09:00,33.3,30.7,30.14,NNW,337,0.0,-999.0,90,-99.99,,,0.00,Acu-Link.com,2013-10-30 11:09:00,
2013-10-30 07:25:00,32.7,29.8,30.13,NNW,337,0.0,-999.0,89,-99.99,,,0.00,Acu-Link.com,2013-10-30 11:25:00,
2013-10-30 07:40:00,32.5,29.6,30.14,NNW,337,0.0,-999.0,89,-99.99,,,0.00,Acu-Link.com,2013-10-30 11:40:00,
2013-10-30 07:55:00,32.4,29.8,30.14,NNW,337,0.0,-999.0,90,-99.99,,,0.00,Acu-Link.com,2013-10-30 11:55:00,
2013-10-30 08:10:00,32.0,29.1,30.15,NNW,337,0.0,-999.0,89,-99.99,,,0.00,Acu-Link.com,2013-10-30 12:10:00,
2013-10-30 08:25:00,32.0,29.1,30.15,NNW,337,0.0,-999.0,89,-99.99,,,0.00,Acu-Link.com,2013-10-30 12:25:00,
2013-10-30 08:40:00,32.9,30.6,30.15,NNW,337,0.0,-999.0,91,-99.99,,,0.00,Acu-Link.com,2013-10-30 12:40:00,
2013-10-30 08:56:00,34.0,31.7,30.16,NNW,337,0.0,-999.0,91,-99.99,,,0.00,Acu-Link.com,2013-10-30 12:56:00,
2013-10-30 09:11:00,34.5,31.9,30.16,SE,135,1.1,-999.0,90,-99.99,,,0.00,Acu-Link.com,2013-10-30 13:11:00,
2013-10-30 09:26:00,36.1,32.6,30.15,SE,135,0.0,-999.0,87,-99.99,,,0.00,Acu-Link.com,2013-10-30 13:26:00,
2013-10-30 09:41:00,36.3,33.7,30.15,West,270,0.0,-999.0,90,-99.99,,,0.00,Acu-Link.com,2013-10-30 13:41:00,
2013-10-30 09:56:00,38.3,33.6,30.15,SE,135,0.0,-999.0,83,-99.99,,,0.00,Acu-Link.com,2013-10-30 13:56:00,
2013-10-30 10:11:00,41.0,34.0,30.16,NW,315,0.0,-999.0,76,-99.99,,,0.00,Acu-Link.com,2013-10-30 14:11:00,
2013-10-30 10:26:00,44.2,35.0,30.15,ENE,67,0.0,-999.0,70,-99.99,,,0.00,Acu-Link.com,2013-10-30 14:26:00,
2013-10-30 10:41:00,50.4,35.3,30.16,ESE,112,0.0,-999.0,56,-99.99,,,0.00,Acu-Link.com,2013-10-30 14:41:00,
2013-10-30 10:56:00,48.4,35.2,30.15,SSE,157,2.2,-999.0,60,-99.99,,,0.00,Acu-Link.com,2013-10-30 14:56:00,
2013-10-30 11:12:00,52.2,37.0,30.15,NNW,337,0.0,-999.0,56,-99.99,,,0.00,Acu-Link.com,2013-10-30 15:12:00,
2013-10-30 11:27:00,53.2,37.9,30.14,NW,315,1.1,-999.0,56,-99.99,,,0.00,Acu-Link.com,2013-10-30 15:27:00,
2013-10-30 11:42:00,57.0,39.1,30.14,SW,225,0.0,-999.0,51,-99.99,,,0.00,Acu-Link.com,2013-10-30 15:42:00,
2013-10-30 11:57:00,55.9,39.0,30.13,ENE,67,0.0,-999.0,53,-99.99,,,0.00,Acu-Link.com,2013-10-30 15:57:00,
2013-10-30 12:12:00,60.8,40.4,30.12,NNE,22,0.0,-999.0,47,-99.99,,,0.00,Acu-Link.com,2013-10-30 16:12:00,
2013-10-30 12:27:00,57.9,39.9,30.11,East,90,2.2,-999.0,51,-99.99,,,0.00,Acu-Link.com,2013-10-30 16:27:00,
2013-10-30 12:42:00,58.5,39.9,30.10,ESE,112,0.0,-999.0,50,-99.99,,,0.00,Acu-Link.com,2013-10-30 16:42:00,
2013-10-30 12:58:00,63.3,40.4,30.10,West,270,2.2,-999.0,43,-99.99,,,0.00,Acu-Link.com,2013-10-30 16:58:00,
2013-10-30 13:13:00,65.3,41.0,30.08,NE,45,0.0,-999.0,41,-99.99,,,0.00,Acu-Link.com,2013-10-30 17:13:00,
2013-10-30 13:28:00,64.9,41.3,30.07,NNE,22,0.0,-999.0,42,-99.99,,,0.00,Acu-Link.com,2013-10-30 17:28:00,
2013-10-30 13:43:00,67.3,41.5,30.06,WSW,247,1.7,-999.0,39,-99.99,,,0.00,Acu-Link.com,2013-10-30 17:43:00,
2013-10-30 13:58:00,66.6,40.9,30.05,WNW,292,3.2,-999.0,39,-99.99,,,0.00,Acu-Link.com,2013-10-30 17:58:00,
2013-10-30 14:13:00,68.4,41.1,30.04,West,270,2.7,-999.0,37,-99.99,,,0.00,Acu-Link.com,2013-10-30 18:13:00,
2013-10-30 14:29:00,66.0,39.7,30.03,WSW,247,0.0,-999.0,38,-99.99,,,0.00,Acu-Link.com,2013-10-30 18:29:00,
2013-10-30 14:44:00,65.7,38.7,30.02,SSE,157,0.0,-999.0,37,-99.99,,,0.00,Acu-Link.com,2013-10-30 18:44:00,
2013-10-30 14:59:00,68.2,38.8,30.03,East,90,0.0,-999.0,34,-99.99,,,0.00,Acu-Link.com,2013-10-30 18:59:00,
2013-10-30 15:14:00,72.7,37.7,30.03,West,270,2.2,-999.0,28,-99.99,,,0.00,Acu-Link.com,2013-10-30 19:14:00,
2013-10-30 15:29:00,66.4,37.9,30.02,ENE,67,0.0,-999.0,35,-99.99,,,0.00,Acu-Link.com,2013-10-30 19:29:00,
2013-10-30 15:44:00,67.8,38.4,30.01,WNW,292,1.7,-999.0,34,-99.99,,,0.00,Acu-Link.com,2013-10-30 19:44:00,
2013-10-30 15:59:00,66.9,38.4,30.00,South,180,1.1,-999.0,35,-99.99,,,0.00,Acu-Link.com,2013-10-30 19:59:00,
2013-10-30 16:14:00,65.1,37.5,30.00,ESE,112,3.7,-999.0,36,-99.99,,,0.00,Acu-Link.com,2013-10-30 20:14:00,
2013-10-30 16:29:00,64.6,38.4,30.00,SSE,157,2.2,-999.0,38,-99.99,,,0.00,Acu-Link.com,2013-10-30 20:29:00,
2013-10-30 16:45:00,66.4,39.3,30.00,WNW,292,0.0,-999.0,37,-99.99,,,0.00,Acu-Link.com,2013-10-30 20:45:00,
2013-10-30 17:00:00,69.4,39.0,29.99,NW,315,0.0,-999.0,33,-99.99,,,0.00,Acu-Link.com,2013-10-30 21:00:00,
2013-10-30 17:15:00,65.3,38.4,29.98,West,270,0.0,-999.0,37,-99.99,,,0.00,Acu-Link.com,2013-10-30 21:15:00,
2013-10-30 17:30:00,63.0,38.9,29.99,West,270,0.0,-999.0,41,-99.99,,,0.00,Acu-Link.com,2013-10-30 21:30:00,
2013-10-30 17:45:00,60.3,41.1,29.99,NNE,22,0.0,-999.0,49,-99.99,,,0.00,Acu-Link.com,2013-10-30 21:45:00,
2013-10-30 18:00:00,57.9,39.9,30.01,NE,45,0.0,-999.0,51,-99.99,,,0.00,Acu-Link.com,2013-10-30 22:00:00,
2013-10-30 18:15:00,55.6,39.7,30.01,East,90,0.0,-999.0,55,-99.99,,,0.00,Acu-Link.com,2013-10-30 22:15:00,
2013-10-30 18:30:00,53.8,39.8,30.01,NNE,22,0.0,-999.0,59,-99.99,,,0.00,Acu-Link.com,2013-10-30 22:30:00,
2013-10-30 18:45:00,52.2,38.7,30.02,NNW,337,0.0,-999.0,60,-99.99,,,0.00,Acu-Link.com,2013-10-30 22:45:00,
2013-10-30 19:00:00,50.7,39.4,30.02,NE,45,0.0,-999.0,65,-99.99,,,0.00,Acu-Link.com,2013-10-30 23:00:00,
2013-10-30 19:16:00,49.5,38.2,30.03,WNW,292,0.0,-999.0,65,-99.99,,,0.00,Acu-Link.com,2013-10-30 23:16:00,
2013-10-30 19:31:00,48.7,39.7,30.03,NE,45,0.0,-999.0,71,-99.99,,,0.00,Acu-Link.com,2013-10-30 23:31:00,
2013-10-30 19:46:00,48.0,38.7,30.04,ESE,112,0.0,-999.0,70,-99.99,,,0.00,Acu-Link.com,2013-10-30 23:46:00,
2013-10-30 20:01:00,47.3,38.0,30.04,ESE,112,0.0,-999.0,70,-99.99,,,0.00,Acu-Link.com,2013-10-31 00:01:00,
2013-10-30 20:16:00,46.6,37.7,30.04,NW,315,0.0,-999.0,71,-99.99,,,0.00,Acu-Link.com,2013-10-31 00:16:00,
2013-10-30 20:31:00,45.7,37.5,30.04,West,270,0.0,-999.0,73,-99.99,,,0.00,Acu-Link.com,2013-10-31 00:31:00,
2013-10-30 20:46:00,45.3,37.2,30.05,SW,225,0.0,-999.0,73,-99.99,,,0.00,Acu-Link.com,2013-10-31 00:46:00,
2013-10-30 21:01:00,45.1,37.7,30.05,NE,45,0.0,-999.0,75,-99.99,,,0.00,Acu-Link.com,2013-10-31 01:01:00,
2013-10-30 21:16:00,45.3,37.9,30.05,ESE,112,0.0,-999.0,75,-99.99,,,0.00,Acu-Link.com,2013-10-31 01:16:00,
2013-10-30 21:32:00,45.3,37.9,30.05,ESE,112,0.0,-999.0,75,-99.99,,,0.00,Acu-Link.com,2013-10-31 01:32:00,
2013-10-30 21:47:00,45.9,39.1,30.05,NNW,337,0.0,-999.0,77,-99.99,,,0.00,Acu-Link.com,2013-10-31 01:47:00,
2013-10-30 22:02:00,46.4,39.3,30.05,SSW,202,0.0,-999.0,76,-99.99,,,0.00,Acu-Link.com,2013-10-31 02:02:00,
2013-10-30 22:17:00,46.4,38.9,30.06,WNW,292,0.0,-999.0,75,-99.99,,,0.00,Acu-Link.com,2013-10-31 02:17:00,
2013-10-30 22:32:00,46.4,38.9,30.06,West,270,0.0,-999.0,75,-99.99,,,0.00,Acu-Link.com,2013-10-31 02:32:00,
2013-10-30 22:47:00,46.2,38.7,30.06,NNE,22,0.0,-999.0,75,-99.99,,,0.00,Acu-Link.com,2013-10-31 02:47:00,
2013-10-30 23:02:00,46.4,39.3,30.06,WNW,292,0.0,-999.0,76,-99.99,,,0.00,Acu-Link.com,2013-10-31 03:02:00,
2013-10-30 23:17:00,46.6,39.4,30.05,ENE,67,0.0,-999.0,76,-99.99,,,0.00,Acu-Link.com,2013-10-31 03:17:00,
2013-10-30 23:32:00,46.9,40.1,30.05,SE,135,0.0,-999.0,77,-99.99,,,0.00,Acu-Link.com,2013-10-31 03:32:00,
2013-10-30 23:48:00,46.9,39.4,30.05,ESE,112,0.0,-999.0,75,-99.99,,,0.00,Acu-Link.com,2013-10-31 03:48:00,